This demonstration page uses our WeatherBlox Daily Observations layout. Learn more.

Left ArrowRight Arrow

39.29038, -76.61219

Hourly Observations for February 16, 2021

Temp ( °F °C ) Dew Point ( °F °C ) Humidity (%) Winds ( mph kmh ) Pressure ( in mb ) Visibility ( mi km ) Precip ( " mm )
12:11 am 00:11 Cloudy with Rain 35 1.7 33 0.6 93 93 E 7 11 29.87 1012 3 5 0.01 0.25
12:54 am 00:54 Cloudy with Light Rain 35 1.7 33 0.6 93 93 ENE 7 11 29.80 1009 3 5 0.13 3.30
1:37 am 01:37 Cloudy with Light Rain 35 1.7 33 0.6 93 93 ENE 8 13 29.78 1008 2 3 0.05 1.27
1:54 am 01:54 Cloudy with Light Rain 35 1.7 33 0.6 93 93 ENE 9 15 29.75 1007 3 4 0.08 2.03
2:54 am 02:54 Cloudy with Light Rain 36 2.2 34 1.1 93 93 ENE 5 7 29.68 1005 2 2 0.05 1.27
3:17 am 03:17 Cloudy with Light Rain 36 2.2 35 1.7 97 97 NNW 5 7 29.66 1004 3 4 0.07 1.78
3:24 am 03:24 Cloudy with Light Rain 36 2.2 35 1.7 97 97 N N/A 29.66 1004 3 5 0.07 1.78
3:33 am 03:33 Cloudy with Light Rain 36 2.2 33 0.6 89 89 W 12 19 29.68 1005 3 4 0.07 1.78
3:54 am 03:54 Cloudy with Light Rain 36 2.2 34 1.1 93 93 WNW 7 11 29.66 1004 3 4 0.10 2.54
4:10 am 04:10 Cloudy with Light Rain 36 2.2 34 1.1 93 93 WNW 7 11 29.66 1004 3 4 0.00 0.00
4:23 am 04:23 Cloudy with Drizzle 36 2.2 34 1.1 93 93 WNW 8 13 29.66 1004 3 4 0.01 0.25
4:50 am 04:50 Cloudy with Light Rain 36 2 36 2 100 100 WNW 5 7 29.65 1004 3 4 0.03 0.76
4:54 am 04:54 Cloudy with Light Rain 36 2.2 35 1.7 97 97 WNW 5 7 29.64 1004 2 3 0.03 0.76
5:27 am 05:27 Cloudy with Drizzle 37 2.8 34 1.1 89 89 W 5 7 29.65 1004 3 5 0.00 0.00
5:54 am 05:54 Cloudy with Drizzle 36 2.2 34 1.1 93 93 WNW 5 7 29.64 1004 4 6 0.01 0.25
6:54 am 06:54 Cloudy with Mist and Fog 37 2.8 34 1.1 89 89 W 3 6 29.63 1003 6 10 0.00 0.00
7:54 am 07:54 Cloudy with Mist and Fog 37 2.8 35 1.7 93 93 N N/A 29.63 1004 6 10 N/A
8:11 am 08:11 Cloudy with Mist and Fog 37 2.8 35 1.7 93 93 N N/A 29.65 1004 6 10 N/A
8:54 am 08:54 Cloudy with Mist and Fog 38 3.3 35 1.7 89 89 WSW 3 6 29.67 1005 6 10 N/A
9:09 am 09:09 Cloudy with Mist and Fog 39 3.9 35 1.7 86 86 WSW 6 9 29.68 1005 6 10 N/A
9:54 am 09:54 Cloudy with Mist and Fog 41 5 37 2.8 86 86 WSW 6 9 29.68 1005 6 10 N/A
10:54 am 10:54 Cloudy 43 6.1 38 3.3 82 82 SW 3 6 29.67 1005 7 11 N/A
11:54 am 11:54 Cloudy 47 8.3 39 3.9 74 74 W 8 13 29.67 1005 10 16 N/A
12:54 pm 12:54 Mostly Cloudy 47 8.3 38 3.3 71 71 W 10 17 29.67 1005 10 16 N/A
1:54 pm 13:54 Cloudy 48 8.9 37 2.8 66 66 W 12 19 29.68 1005 10 16 N/A
2:54 pm 14:54 Cloudy 47 8.3 35 1.7 63 63 W 12 19 29.72 1007 10 16 N/A
3:54 pm 15:54 Cloudy 47 8.3 30 -1.1 52 52 WNW 18 30 29.76 1008 10 16 N/A
4:54 pm 16:54 Mostly Cloudy 43 6.1 26 -3.3 51 51 WNW 22 35 29.83 1010 10 16 N/A
5:54 pm 17:54 Mostly Cloudy 38 3.3 22 -5.6 52 52 WNW 16 26 29.90 1013 10 16 N/A
6:54 pm 18:54 Mostly Cloudy 35 1.7 19 -7.2 52 52 WNW 15 24 29.96 1015 10 16 N/A
7:54 pm 19:54 Mostly Cloudy 34 1.1 16 -8.9 48 48 WNW 15 24 30.02 1017 10 16 N/A
8:54 pm 20:54 Mostly Cloudy 32 undefined 15 -9.4 50 50 WNW 17 28 30.06 1018 10 16 N/A
9:54 pm 21:54 Mostly Clear 30 -1.1 14 -10 51 51 NW 22 35 30.10 1019 10 16 N/A
10:54 pm 22:54 Clear 29 -1.7 13 -10.6 51 51 WNW 15 24 30.13 1020 10 16 N/A
11:54 pm 23:54 Clear 28 -2.2 12 -11.1 51 51 WNW 15 24 30.15 1021 10 16 N/A

Powered by AerisWeather